Location: Acton
(51.4942°N, 0.2232°W)
Time: 09:32:14
(UTC+00:00)

Okean 1-7 Rocket - Pass Details

Date: 20 January 2021
Orbit: 615 x 650 km, 82.5° (Epoch: 26 February)

Event Time Altitude Azimuth Distance (km) Brightness Sun altitude
Exits shadow 05:00:58 28° 10° (N) 1,211 5.1 -26.5°
Maximum altitude 05:03:08 55° 75° (ENE) 780 4.3 -26.2°
Drops below altitude 10° 05:07:34 10° 154° (SSE) 2,029 6.5 -25.5°
Sets 05:09:49 0° 159° (SSE) 2,928 7.3 -25.2°
